Location: Nag� el Ma?a??a
(24.0667°N, 32.8833°E)
Time: 17:00:39
(UTC+00:00)

Cosmos 1544 - Pass Details

Date: 25 September 2021
Orbit: 469 x 485 km, 82.5° (Epoch: 16 October)

Event Time Altitude Azimuth Distance (km) Brightness Sun altitude
Rises 02:04:46 0° 358° (N) 2,550 6.8 -22.1°
Reaches altitude 10° 02:06:53 10° 1° (N) 1,666 5.9 -21.6°
Maximum altitude 02:10:30 67° 84° (E) 525 3.3 -20.8°
Drops below altitude 10° 02:14:06 10° 168° (SSE) 1,651 5.8 -20.0°
Sets 02:16:11 0° 171° (S) 2,524 6.7 -19.5°
